FW4683 Weather Reports


Display with metric or nautical units.
time (UTC)temp
F
wind
direction
speed
MPH
gust
MPH
rain 1hr
in
rain 24hr
in
rain mn
in
humidity
%
barometer
mb
20260507024051 64 96 2.0 7.0 0.01 0.32 0.32 97 1011.3
20260507023557 64 96 2.0 15.0 0.02 0.32 0.32 97 1011.1
20260507023051 64 96 4.0 15.0 0.02 0.32 0.32 97 1009.4
20260507022054 65 96 5.0 7.0 0.01 0.31 0.31 97 1012.2
20260507021550 65 96 3.0 6.0 0.01 0.31 0.31 97 1013.1
20260507021050 65 96 2.0 3.0 0.01 0.31 0.31 97 1013.5
20260507020550 65 96 0.0 1.0 0.02 0.31 0.31 97 1013.1
20260507020106 65 96 0.0 1.0 0.03 0.31 0.31 97 1012.7
20260507015549 65 96 0.0 1.0 0.04 0.31 0.31 97 1012.7
20260507015049 65 96 0.0 1.0 0.04 0.31 0.31 97 1012.4
20260507014602 65 96 0.0 1.0 0.04 0.31 0.31 97 1012.4
20260507014049 65 96 0.0 2.0 0.04 0.31 0.31 97 1012.2
20260507013550 65 96 0.0 2.0 0.04 0.31 0.31 97 1012.3
20260507013052 65 96 1.0 3.0 0.03 0.30 0.30 97 1012.3
20260507012049 65 96 1.0 3.0 0.07 0.30 0.30 97 1012.2
20260507011549 65 96 0.0 2.0 0.09 0.30 0.30 96 1011.8
20260507011049 65 96 0.0 4.0 0.11 0.30 0.30 96 1011.7
20260507010549 65 96 0.0 9.0 0.12 0.30 0.30 96 1011.7
20260507010049 65 96 3.0 11.0 0.13 0.28 0.28 96 1012.3
20260507005548 66 96 3.0 11.0 0.12 0.28 0.28 96 1012.7
20260507005049 66 96 5.0 12.0 0.12 0.27 0.27 96 1012.8
20260507004548 65 96 6.0 11.0 0.14 0.27 0.27 96 1012.2
20260507004047 66 96 6.0 9.0 0.15 0.27 0.27 96 1011.7
20260507003547 66 96 3.0 8.0 0.16 0.27 0.27 96 1011.3
20260507003047 66 96 4.0 8.0 0.17 0.27 0.27 95 1010.9
20260507002047 66 96 1.0 8.0 0.15 0.25 0.25 94 1010.7
20260507001548 66 96 2.0 8.0 0.12 0.22 0.22 94 1011.5
20260507001046 67 96 2.0 8.0 0.10 0.20 0.20 94 1011.5
20260507000547 67 96 1.0 7.0 0.08 0.18 0.18 93 1011.7
20260507000046 67 96 2.0 7.0 0.07 0.17 0.17 93 1011.7
20260506235546 67 96 2.0 8.0 0.06 0.16 0.16 93 1011.8
20260506235048 67 96 2.0 8.0 0.05 0.15 0.15 92 1012.0
20260506234551 67 96 2.0 7.0 0.04 0.14 0.14 92 1011.8
20260506234044 67 96 3.0 10.0 0.03 0.13 0.13 91 1011.7
20260506233544 68 96 3.0 10.0 0.01 0.11 0.11 91 1011.8
20260506233045 68 96 3.0 8.0 0.00 0.10 0.10 91 1012.2
20260506232045 68 96 3.0 8.0 0.00 0.10 0.10 91 1011.6
20260506231552 68 96 2.0 11.0 0.00 0.10 0.10 90 1011.3
20260506231045 68 96 2.0 11.0 0.00 0.10 0.10 90 1011.2
20260506230544 68 96 5.0 9.0 0.00 0.10 0.10 90 1011.1
20260506230055 68 96 4.0 13.0 0.00 0.10 0.10 89 1011.1
20260506225544 68 96 7.0 14.0 0.00 0.10 0.10 89 1011.1
20260506225045 68 96 7.0 14.0 0.00 0.10 0.10 89 1010.9
20260506224544 69 96 3.0 8.0 0.00 0.10 0.10 88 1010.8
20260506224043 69 96 3.0 9.0 0.00 0.10 0.10 88 1010.7
20260506223543 69 96 2.0 11.0 0.00 0.10 0.10 87 1010.8
20260506223052 69 96 4.0 11.0 0.00 0.10 0.10 86 1010.9
20260506222043 70 96 4.0 9.0 0.00 0.10 0.10 85 1011.1
20260506221544 70 96 3.0 8.0 0.00 0.10 0.10 84 1011.2
20260506221043 70 96 4.0 8.0 0.00 0.10 0.10 84 1011.3
20260506220543 70 96 1.0 8.0 0.00 0.10 0.10 84 1011.5
20260506220043 70 96 6.0 8.0 0.00 0.10 0.10 83 1011.3
20260506215542 70 96 3.0 7.0 0.00 0.10 0.10 83 1011.0
20260506215042 70 96 0.0 4.0 0.00 0.10 0.10 82 1010.7
20260506214541 70 96 0.0 6.0 0.00 0.10 0.10 82 1011.1
20260506214040 70 96 2.0 6.0 0.00 0.10 0.10 82 1011.2
20260506213543 70 96 2.0 9.0 0.00 0.10 0.10 83 1011.2
20260506213059 70 96 5.0 17.0 0.00 0.10 0.10 83 1011.3
20260506212041 70 96 11.0 16.0 0.00 0.10 0.10 82 1011.3
20260506211550 70 96 4.0 12.0 0.00 0.10 0.10 82 1011.2
20260506211040 70 96 6.0 12.0 0.00 0.10 0.10 81 1011.4
20260506210540 70 96 5.0 12.0 0.00 0.10 0.10 81 1011.5
20260506210040 70 96 6.0 12.0 0.00 0.10 0.10 81 1011.3
20260506205539 70 96 7.0 12.0 0.00 0.10 0.10 81 1011.3
20260506205039 70 96 4.0 16.0 0.00 0.10 0.10 81 1011.4
20260506204546 70 96 10.0 16.0 0.00 0.10 0.10 80 1011.4
20260506204038 70 96 9.0 17.0 0.00 0.10 0.10 80 1011.4
20260506203538 70 96 9.0 17.0 0.00 0.10 0.10 80 1011.4
20260506203045 70 96 9.0 15.0 0.00 0.10 0.10 81 1011.4
20260506202042 70 96 8.0 15.0 0.00 0.10 0.10 81 1011.3
20260506201551 70 96 6.0 16.0 0.00 0.10 0.10 81 1011.5
20260506201036 70 96 10.0 19.0 0.00 0.10 0.10 79 1011.6
20260506200536 71 96 9.0 16.0 0.00 0.10 0.10 79 1011.8
20260506200036 71 96 6.0 16.0 0.00 0.10 0.10 79 1011.8
20260506195535 71 96 8.0 17.0 0.00 0.10 0.10 80 1011.8
20260506195035 71 96 10.0 17.0 0.00 0.10 0.10 79 1011.9
20260506194537 71 96 9.0 14.0 0.00 0.10 0.10 79 1011.7
20260506194033 71 96 9.0 14.0 0.00 0.10 0.10 80 1011.8
20260506193532 71 96 7.0 16.0 0.00 0.10 0.10 79 1012.0
20260506193036 70 96 11.0 18.0 0.00 0.10 0.10 80 1012.2
20260506192034 69 96 12.0 16.0 0.00 0.10 0.10 82 1012.3
20260506191540 69 96 7.0 17.0 0.00 0.10 0.10 82 1012.3
20260506191133 68 96 9.0 17.0 0.00 0.10 0.10 82 1012.2
20260506190530 68 96 8.0 16.0 0.00 0.10 0.10 82 1012.1
20260506190031 68 96 10.0 21.0 0.00 0.10 0.10 83 1012.1
20260506185530 67 96 12.0 21.0 0.00 0.10 0.10 84 1012.1
20260506185029 67 96 9.0 20.0 0.00 0.10 0.10 85 1012.0
20260506184529 67 96 10.0 20.0 0.00 0.10 0.10 86 1012.0
20260506184032 67 96 9.0 19.0 0.00 0.10 0.10 86 1011.9
20260506183529 66 96 10.0 19.0 0.00 0.10 0.10 86 1012.1
20260506183036 66 96 8.0 15.0 0.00 0.10 0.10 85 1012.0
20260506182027 66 96 8.0 16.0 0.00 0.10 0.10 87 1012.0
20260506181526 67 96 8.0 11.0 0.00 0.10 0.10 85 1011.9
20260506181026 67 96 6.0 12.0 0.00 0.10 0.10 86 1011.9
20260506180526 67 96 7.0 13.0 0.00 0.10 0.10 86 1012.1
20260506180024 66 96 6.0 13.0 0.00 0.10 0.10 87 1011.9
20260506175523 66 96 6.0 13.0 0.00 0.10 0.10 87 1011.9
20260506175021 66 96 8.0 14.0 0.00 0.10 0.10 87 1011.9
20260506174520 65 96 5.0 14.0 0.00 0.10 0.10 89 1012.1
20260506174121 65 96 4.0 14.0 0.01 0.10 0.10 90 1012.1
20260506173519 65 96 1.0 8.0 0.01 0.10 0.10 90 1012.1
20260506173019 65 96 1.0 8.0 0.01 0.10 0.10 90 1012.1
20260506172018 64 96 2.0 9.0 0.01 0.10 0.10 89 1011.9
20260506171525 64 96 5.0 13.0 0.01 0.10 0.10 89 1011.8
20260506171021 63 96 4.0 13.0 0.02 0.10 0.10 90 1012.2
20260506170522 63 96 7.0 13.0 0.04 0.10 0.10 90 1012.6
20260506170018 63 96 3.0 7.0 0.05 0.10 0.10 91 1012.8
20260506165517 63 96 2.0 8.0 0.07 0.10 0.10 91 1013.2
20260506165016 63 96 4.0 9.0 0.09 0.10 0.10 91 1013.5
20260506164516 63 96 5.0 9.0 0.10 0.10 0.10 91 1013.7
20260506164021 63 96 4.0 8.0 0.09 0.09 0.09 91 1013.9
20260506163516 63 96 3.0 6.0 0.09 0.09 0.09 91 1014.1
20260506163018 63 96 1.0 3.0 0.09 0.09 0.09 91 1014.2
20260506162021 62 96 0.0 4.0 0.09 0.09 0.09 91 1013.9
20260506161517 62 96 2.0 8.0 0.09 0.09 0.09 90 1014.2
20260506161018 62 96 4.0 8.0 0.09 0.09 0.09 88 1014.2
20260506160520 63 96 1.0 4.0 0.07 0.07 0.07 88 1014.1
20260506160017 63 96 1.0 4.0 0.06 0.06 0.06 87 1014.4
20260506155514 64 96 0.0 2.0 0.04 0.04 0.04 87 1014.4
20260506155014 64 96 0.0 2.0 0.02 0.02 0.02 85 1014.2
20260506154513 64 96 0.0 2.0 0.00 0.00 0.00 85 1014.2
20260506154013 64 96 0.0 7.0 0.00 0.00 0.00 85 1014.0
20260506153511 64 96 3.0 7.0 0.00 0.00 0.00 84 1013.7
20260506153011 64 96 1.0 6.0 0.00 0.00 0.00 83 1013.5
20260506152010 64 96 5.0 10.0 0.00 0.00 0.00 79 1013.5
20260506151510 65 96 3.0 10.0 0.00 0.00 0.00 79 1013.4
20260506151008 64 96 7.0 12.0 0.00 0.00 0.00 79 1013.1
20260506150507 64 96 7.0 11.0 0.00 0.00 0.00 79 1012.8
20260506150007 64 96 6.0 8.0 0.00 0.00 0.00 79 1012.7
20260506145507 64 96 3.0 7.0 0.00 0.00 0.00 79 1012.8
20260506145006 64 96 1.0 9.0 0.00 0.00 0.00 80 1012.8
20260506144506 63 96 0.0 9.0 0.00 0.00 0.00 81 1013.0
20260506144006 63 96 3.0 9.0 0.00 0.00 0.00 81 1013.0
20260506143506 63 96 4.0 9.0 0.00 0.00 0.00 81 1012.7
20260506143015 63 96 2.0 7.0 0.00 0.00 0.00 82 1012.6
20260506142006 63 96 0.0 8.0 0.00 0.00 0.00 82 1012.4
20260506141508 63 96 4.0 8.0 0.00 0.00 0.00 80 1012.7
20260506141009 64 96 3.0 8.0 0.00 0.00 0.00 79 1012.6
20260506140504 64 96 1.0 3.0 0.00 0.00 0.00 77 1011.7
20260506140004 64 96 0.0 4.0 0.00 0.00 0.00 77 1012.5
20260506135503 64 96 1.0 4.0 0.00 0.00 0.00 77 1012.8
20260506135006 64 96 2.0 4.0 0.00 0.00 0.00 76 1012.8
20260506134503 64 96 0.0 7.0 0.00 0.00 0.00 76 1013.0
20260506134002 64 96 1.0 9.0 0.00 0.00 0.00 77 1012.9
20260506133502 64 96 3.0 10.0 0.00 0.00 0.00 76 1012.7
20260506133002 64 96 6.0 12.0 0.00 0.00 0.00 77 1012.7
20260506132002 64 96 3.0 11.0 0.00 0.00 0.00 77 1012.3
20260506131503 64 96 5.0 11.0 0.00 0.00 0.00 76 1012.2
20260506131005 63 96 3.0 11.0 0.00 0.00 0.00 76 1012.3
20260506130503 63 96 4.0 11.0 0.00 0.00 0.00 76 1012.3
20260506130005 63 96 6.0 13.0 0.00 0.00 0.00 76 1012.3
20260506125501 64 96 6.0 13.0 0.00 0.00 0.00 76 1012.1
20260506125002 64 96 5.0 13.0 0.00 0.00 0.00 76 1012.2
20260506124501 63 96 8.0 12.0 0.00 0.00 0.00 76 1012.3
20260506124002 63 96 6.0 13.0 0.00 0.00 0.00 76 1012.2
20260506123502 63 96 7.0 13.0 0.00 0.00 0.00 75 1012.1
20260506123001 63 96 6.0 13.0 0.00 0.00 0.00 75 1012.3
20260506122100 63 96 9.0 14.0 0.00 0.00 0.00 76 1012.3
20260506121600 63 96 6.0 14.0 0.00 0.00 0.00 76 1012.3
20260506121100 63 96 6.0 14.0 0.00 0.00 0.00 76 1012.2
20260506120558 63 96 6.0 14.0 0.00 0.00 0.00 76 1012.3
20260506120058 63 96 3.0 11.0 0.00 0.00 0.00 76 1012.3
20260506115557 63 96 5.0 11.0 0.00 0.00 0.00 76 1012.4
20260506115057 63 96 0.0 7.0 0.00 0.00 0.00 76 1012.6
20260506114557 62 96 1.0 4.0 0.00 0.00 0.00 77 1012.5
20260506114057 62 96 0.0 1.0 0.00 0.00 0.00 78 1012.8
20260506113557 62 96 0.0 4.0 0.00 0.00 0.00 78 1012.8
20260506113057 62 96 0.0 4.0 0.00 0.00 0.00 78 1012.7
20260506112700 62 96 1.0 6.0 0.00 0.00 0.00 77 1012.6
20260506112057 62 96 1.0 6.0 0.00 0.00 0.00 77 1012.6
20260506111557 62 96 1.0 8.0 0.00 0.00 0.00 78 1012.5
20260506111057 62 96 5.0 8.0 0.00 0.00 0.00 77 1012.3
20260506110559 62 96 4.0 8.0 0.00 0.00 0.00 77 1012.3
20260506110057 62 96 5.0 8.0 0.00 0.00 0.00 77 1012.2
20260506105557 62 96 0.0 7.0 0.00 0.00 0.00 77 1012.3
20260506105059 62 96 1.0 7.0 0.00 0.00 0.00 77 1012.4
20260506104559 62 96 3.0 8.0 0.00 0.00 0.00 77 1012.4
20260506104056 62 96 4.0 11.0 0.00 0.00 0.00 77 1012.2
20260506103556 62 96 7.0 11.0 0.00 0.00 0.00 77 1012.1
20260506103101 62 96 5.0 10.0 0.00 0.00 0.00 77 1011.9
20260506102656 62 96 4.0 13.0 0.00 0.00 0.00 77 1011.8
20260506102057 62 96 6.0 13.0 0.00 0.00 0.00 77 1011.8
20260506101555 62 96 3.0 9.0 0.00 0.00 0.00 77 1011.9
20260506101055 62 96 5.0 8.0 0.00 0.00 0.00 77 1011.8
20260506100555 62 96 0.0 4.0 0.00 0.00 0.00 77 1011.7
20260506100055 62 96 1.0 7.0 0.00 0.00 0.00 77 1011.7
20260506095555 62 96 1.0 7.0 0.00 0.00 0.00 77 1011.6
20260506095059 62 96 2.0 6.0 0.00 0.00 0.00 77 1011.7
20260506094604 62 96 0.0 3.0 0.00 0.00 0.00 77 1011.9
20260506094054 62 96 1.0 6.0 0.00 0.00 0.00 77 1011.7
20260506093553 62 96 2.0 6.0 0.00 0.00 0.00 77 1011.8
20260506093053 62 96 2.0 4.0 0.00 0.00 0.00 77 1011.9
20260506092653 62 96 2.0 8.0 0.00 0.00 0.00 77 1011.9
20260506092054 62 96 4.0 8.0 0.00 0.00 0.00 77 1011.9
20260506091557 62 96 1.0 8.0 0.00 0.00 0.00 77 1011.9
20260506091052 62 96 3.0 9.0 0.00 0.00 0.00 76 1011.9
20260506090551 62 96 4.0 8.0 0.00 0.00 0.00 76 1012.0
20260506090055 62 96 2.0 12.0 0.00 0.00 0.00 76 1012.0
20260506085551 62 96 7.0 13.0 0.00 0.00 0.00 76 1011.9
20260506085051 62 96 8.0 13.0 0.00 0.00 0.00 76 1012.0
20260506084607 62 96 4.0 11.0 0.00 0.00 0.00 76 1012.0
20260506084050 62 96 6.0 14.0 0.00 0.00 0.00 76 1012.0
20260506083550 62 96 7.0 14.0 0.00 0.00 0.00 76 1012.1
20260506083050 62 96 5.0 14.0 0.00 0.00 0.00 76 1012.0
20260506082650 62 96 3.0 12.0 0.00 0.00 0.00 75 1012.2
20260506082050 62 96 4.0 0.0 0.00 0.00 0.00 75 1012.0
20260506081550 62 96 6.0 12.0 0.00 0.00 0.00 75 1012.2
20260506081050 62 96 0.0 9.0 0.00 0.00 0.00 75 1012.1
20260506080549 62 96 4.0 13.0 0.00 0.00 0.00 74 1012.1
20260506073055 62 96 5.0 9.0 0.00 0.00 0.00 72 1012.4
20260506072647 62 96 6.0 12.0 0.00 0.00 0.00 72 1012.2
20260506072045 62 96 8.0 12.0 0.00 0.00 0.00 72 1012.2
20260506071546 62 96 5.0 9.0 0.00 0.00 0.00 71 1012.3
20260506071044 62 96 6.0 15.0 0.00 0.00 0.00 71 1012.2
20260506070547 62 96 7.0 15.0 0.00 0.00 0.00 71 1012.3
20260506062042 64 96 4.0 13.0 0.00 0.00 0.00 66 1012.4
20260506061554 64 96 6.0 13.0 0.00 0.00 0.00 65 1012.4
20260506061042 64 96 8.0 14.0 0.00 0.00 0.00 65 1012.4
20260506060543 65 96 8.0 14.0 0.00 0.00 0.00 64 1012.5
20260506051033 62 96 0.0 1.0 0.00 0.00 0.00 70 1012.9
20260506050534 61 96 0.0 1.0 0.00 0.00 0.00 70 1012.9
20260506045031 61 96 0.0 4.0 0.00 0.00 0.00 71 1012.9
20260506044544 61 96 0.0 0.0 0.00 0.00 0.00 71 1012.8
20260506044033 61 96 0.0 4.0 0.00 0.00 0.00 71 1012.8
20260506043532 61 96 1.0 4.0 0.00 0.00 0.00 70 1013.0
20260506043039 61 96 0.0 2.0 0.00 0.00 0.00 69 1013.2
20260506042632 62 96 1.0 3.0 0.00 0.00 0.00 67 1013.0
20260506042032 62 96 0.0 1.0 0.00 0.00 0.00 67 1013.0
20260506041534 63 96 0.0 1.0 0.00 0.00 0.00 67 1012.9
20260506041031 63 96 0.0 1.0 0.00 0.00 0.00 66 1012.8
20260506040531 63 96 0.0 0.0 0.00 0.00 0.00 65 1013.0
20260506040031 63 96 0.0 0.0 0.00 0.00 0.00 64 1013.0
20260506035532 64 96 0.0 0.0 0.00 0.00 0.00 64 1013.0
20260506035031 64 96 0.0 1.0 0.00 0.00 0.00 63 1013.0
20260506034532 64 96 0.0 1.0 0.00 0.00 0.00 63 1013.0
20260506034030 64 96 0.0 3.0 0.00 0.00 0.00 63 1012.9
20260506033530 64 96 1.0 4.0 0.00 0.00 0.00 62 1013.0
20260506033030 64 96 2.0 4.0 0.00 0.00 0.00 62 1013.1
20260506032630 65 96 0.0 0.0 0.00 0.00 0.00 61 1013.1
20260506032033 65 96 0.0 0.0 0.00 0.00 0.00 61 1013.3
20260506031544 65 96 0.0 0.0 0.00 0.00 0.00 61 1013.2
20260506031032 65 96 0.0 0.0 0.00 0.00 0.00 61 1013.3
20260506030532 64 96 0.0 0.0 0.00 0.00 0.00 62 1013.3
20260506030032 65 96 0.0 0.0 0.00 0.00 0.00 62 1013.3
20260506025533 65 96 0.0 0.0 0.00 0.00 0.00 62 1013.2
20260506025032 65 96 0.0 0.0 0.00 0.00 0.00 62 1013.2
20260506024541 65 96 0.0 0.0 0.00 0.00 0.00 61 1013.1